Location: Kolin
(50.0330°N, 15.2000°E)
Time: 02:44:58
(UTC+01:00)

ISS - Pass Details

Date: 03 October 2020
Orbit: 417 x 420 km, 51.6° (Epoch: 25 October)

Event Time Altitude Azimuth Distance (km) Brightness Sun altitude
Rises 19:31:10 0° 287° (WNW) 2,370 2.0 -10.2°
Reaches altitude 10° 19:33:17 10° 284° (WNW) 1,504 0.6 -10.6°
Maximum altitude 19:36:36 57° 205° (SSW) 501 -3.3 -11.1°
Enters shadow 19:39:14 15° 128° (SE) 1,231 -1.9 -11.5°
